Location: De Forest
(43.2480°N, 89.3440°W)
Time: 21:53:44
(UTC-05:00)

X-37B - Visible Passes

Search period start: 18 September 2020 00:00
Search period end: 28 September 2020 00:00
Orbit: 386 x 387 km, 45.0° (Epoch: 18 September)

Date Brightness Start Highest point End Pass type
(mag) Time Alt. Az. Time Alt. Az. Time Alt. Az.
18 Sep 1.9 04:34:08 40° ENE 04:34:08 40° ENE 04:36:21 10° ENE visible
18 Sep 0.8 06:06:48 10° WNW 06:09:58 72° N 06:13:09 10° E visible
19 Sep 0.9 05:10:31 42° NW 05:11:20 61° N 05:14:30 10° E visible
20 Sep 3.3 04:14:40 20° ENE 04:14:40 20° ENE 04:15:52 10° E visible
20 Sep 0.5 05:46:57 15° WNW 05:49:27 87° SSW 05:52:38 10° ESE visible
21 Sep 1.0 04:51:11 63° ENE 04:51:11 63° ENE 04:54:01 10° E visible
22 Sep 0.7 05:27:46 34° W 05:28:52 58° SSW 05:32:00 10° ESE visible
23 Sep 2.9 04:32:12 22° ESE 04:32:12 22° ESE 04:33:30 10° ESE visible
23 Sep 2.1 06:04:30 12° W 06:06:40 21° SSW 06:09:10 10° SSE visible
24 Sep 1.8 05:09:04 29° S 05:09:04 29° S 05:11:11 10° SE visible
25 Sep 2.8 05:46:06 12° SSW 05:46:06 12° SSW 05:47:19 10° S visible
